Location: *
(46.4000°N, 12.6667°E)
Time: 03:03:55
(UTC+00:00)

DMSP B5D2-2 - Pass Details

Date: 09 April 2020
Orbit: 791 x 805 km, 98.3° (Epoch: 04 June)

Event Time Altitude Azimuth Distance (km) Brightness Sun altitude
Rises 18:58:42 0° 18° (NNE) 3,305 7.4 -12.1°
Reaches altitude 10° 19:01:06 10° 23° (NNE) 2,372 6.6 -12.5°
Maximum altitude 19:06:12 51° 99° (E) 998 4.2 -13.3°
Drops below altitude 10° 19:11:17 10° 175° (S) 2,364 6.2 -14.0°
Sets 19:13:40 0° 181° (S) 3,291 7.0 -14.4°
